Location: Mason Neck State Park
(38.6428°N, 77.1981°W)
Time: 06:00:31
(UTC-04:00)

ISS - Visible Passes

Search period start: 22 May 2015 00:00
Search period end: 01 June 2015 00:00
Orbit: 399 x 404 km, 51.6° (Epoch: 21 May)

Date Brightness Start Highest point End Pass type
(mag) Time Alt. Az. Time Alt. Az. Time Alt. Az.
22 May 0.0 02:07:04 11° NE 02:07:04 11° NE 02:07:16 10° NE visible
22 May -0.8 03:39:38 13° NW 03:40:51 15° NNW 03:42:53 10° NNE visible
23 May -0.8 02:48:08 20° N 02:48:08 20° N 02:50:03 10° NNE visible
24 May -0.1 01:56:34 13° NNE 01:56:34 13° NNE 01:57:06 10° NE visible
24 May -0.2 03:30:16 10° NNW 03:31:13 11° NNW 03:32:08 10° N visible
25 May -0.4 02:37:29 14° NNW 02:37:39 14° NNW 02:39:29 10° NNE visible
26 May -0.1 01:45:45 14° NNE 01:45:45 14° NNE 01:46:35 10° NNE visible
26 May -0.1 04:57:54 10° N 04:59:08 12° NNE 05:00:25 10° NE visible
27 May 0.0 02:27:15 10° NNW 02:27:51 10° NNW 02:28:23 10° N visible
28 May 0.0 01:34:27 13° NNW 01:34:27 13° NNW 01:35:48 10° NNE visible
28 May -0.3 04:47:01 10° NNW 04:49:13 17° NNE 04:51:29 10° ENE visible
29 May 0.0 00:42:13 13° NNE 00:42:13 13° NNE 00:42:52 10° NNE visible
29 May 0.0 03:54:07 10° N 03:55:34 12° NNE 03:57:03 10° NE visible
29 May -0.3 23:49:22 12° NNE 23:49:22 12° NNE 23:49:46 10° NNE visible
30 May -1.0 04:36:12 10° NNW 04:39:04 28° NNE 04:41:58 10° E visible
30 May -1.7 21:15:20 10° SSE 21:17:14 15° SE 21:19:12 10° E visible
30 May -2.5 22:50:12 10° WSW 22:53:22 50° NW 22:56:33 10° NE visible
31 May 0.1 00:28:55 10° NW 00:30:24 12° NNW 00:31:50 10° N visible
31 May -0.3 03:43:05 10° NNW 03:45:26 18° NNE 03:47:49 10° ENE visible
31 May -3.5 21:56:40 10° SW 21:59:54 79° SE 22:03:09 10° NE visible
31 May -0.3 23:34:25 10° WNW 23:36:39 17° NNW 23:38:51 10° NNE visible
